www.pogodaiklimat.ru

Погода и климат >> Архив погоды >> Россия >> Хабаровский край >> Комсомольск-на-Амуре


ПОГОДА в Комсомольске-на-Амуре

АРХИВ ПОГОДЫ в Комсомольске-на-Амуре

Время (UTC), дата Ветер
(напр.,м/с)
 
Видим.   Явления Облачность Т
(С)
Тd
(С)
f
(%)
Тe
(С)
Тes
(С)
Комфортность P
(гПа)
Po
(гПа)
Тmin
(С)
Tmax
(С)
R
(мм)
R24
(мм)
S
(см)
00 19.06 С 3 20 км 10/6 600 м
[Sc Ac trans]
+12.4 +5.7 64 +11 +13 очень
холодно
1004.8 1002.4
03 19.06 СВ 4 20 км 8/3 600 м
[Sc Ac trans Cc]
+16.0 +7.5 57 +15 +21 холодно 1004.4 1002.1
06 19.06 С 5 20 км 10/0
[Ac und]
+14.3 +7.1 62 +13 +15 очень
холодно
1004.6 1002.2
09 19.06 С 4
{10}
20 км 10/3 600 м
[Sc Ac As]
+12.3 +6.6 68 +10 +11 очень
холодно
1005.3 1002.9 +17.0
12 19.06 С 2 20 км 10/4 600 м
[Sc Ac As]
+12.1 +6.6 69 +11 +11 холодно 1006.9 1004.5
15 19.06 СВ 2 20 км 10/5 600 м
[Sc Ac trans]
+12.7 +7.2 69 +12 +12 прохладно 1007.1 1004.7
18 19.06 С 4 20 км 10/3 600 м
[Sc Ac trans Ci fib]
+12.2 +7.3 72 +10 +10 прохладно 1007.2 1004.8
21 19.06 С 5 50 км 10/3 600 м
[Sc Ac trans Cc]
+12.1 +7.1 71 +10 +10 холодно 1008.7 1006.3 +11.2
00 20.06 С 6-11
{13}
50 км 10/0
[As op Cc]
+15.0 +7.8 62 +13 +16 холодно 1009.1 1006.7
03 20.06 С 6
{11}
50 км 8/0
[Cs]
+19.3 +8.8 51 +20 +26 по сезону 1008.6 1006.3
06 20.06 С 6-11
{12}
50 км 3/0
[Ci]
+21.4 +8.8 44 +23 +27 комфорт 1007.9 1005.6
09 20.06 С 5-11
{12}
50 км 3/0
[Ci fib]
+20.2 +9.2 49 +21 +22 комфорт 1008.4 1006.1 +21.6
12 20.06 С 3
{11}
50 км ясно +16.3 +9.3 63 +16 +16 прохладно 1009.9 1007.5
15 20.06 С 3 50 км ясно +14.2 +9.5 73 +13 +13 прохладно 1010.5 1008.1
18 20.06 СВ 2 50 км ясно +12.3 +9.5 83 +11 +11 прохладно 1010.9 1008.4
21 20.06 СВ 3 50 км 4/0
[Ac lent]
+14.5 +9.8 73 +14 +15 прохладно 1011.2 1008.8 +12.2
00 21.06 СВ 3 20 км 1/0
[Cc]
+18.9 +10.8 59 +20 +30 по сезону 1011.3 1008.9
03 21.06 В 3 50 км 5/3 600 м
[Cu hum Cc]
+21.6 +11.8 54 +24 +33 комфорт 1010.2 1007.9
06 21.06 В 2 50 км 3/1 600 м
[Cu hum Cc]
+23.3 +9.5 41 +25 +34 комфорт 1008.7 1006.4
09 21.06 СВ 3 50 км 3/1 600 м
[Cb cap Cc]
+23.0 +10.9 46 +25 +26 комфорт 1008.5 1006.2 +23.7
12 21.06 С 1 20 км 3/0
[Cc]
+18.1 +11.5 65 +19 +19 по сезону 1010.1 1007.7
15 21.06 С 1 20 км ясно +14.2 +11.6 84 +15 +15 по сезону 1010.5 1008.1
18 21.06 С 1 20 км ясно +11.6 +10.1 91 +11 +11 прохладно 1010.7 1008.3
21 21.06 СВ 2 20 км 3/0
[Ci fib]
+15.6 +11.5 77 +16 +18 по сезону 1011.4 1009.0 +11.4
00 22.06 СВ 2 20 км 4/0
[Ci fib]
+21.4 +12.6 57 +24 +35 комфорт 1011.1 1008.7
03 22.06 СВ 2 20 км 5/5 600 м
[Sc diur, vesp]
+25.0 +10.9 41 +26 +35 жарко 1009.7 1007.4
06 22.06 СВ 2 20 км 4/4 600 м
[Sc diur, vesp]
+26.7 +10.3 36 +27 +34 жарко 1007.9 1005.6
09 22.06 В 2 20 км 6/5 600 м
[Sc diur, vesp Ci fib]
+26.1 +10.2 37 +27 +28 жарко 1007.6 1005.3 +26.9
12 22.06 СЗ 1 20 км 4/4 600 м
[Sc diur, vesp]
+20.1 +12.5 62 +23 +23 комфорт 1008.9 1006.6
15 22.06 С 2 20 км ясно +18.5 +13.2 71 +20 +20 тепло 1009.8 1007.4
18 22.06 С 2 20 км 8/8 600 м
[Sc]
+15.9 +11.2 74 +16 +16 по сезону 1010.1 1007.7
21 22.06 С 4 20 км {метель} 9/8 600 м
[Cb cap Ac trans]
+14.3 +10.3 77 +13 +13 прохладно 1011.7 1009.3 +14.3
00 23.06 С 3 20 км {ливн. осадки} 10/5 600 м
[Sc Ac trans Cc]
+15.4 +10.3 72 +15 +17 холодно 1012.0 1009.6 +13.9
03 23.06 С 4 20 км 10/1 600 м
[Cu hum Ac trans Cc]
+19.9 +12.0 60 +22 +27 комфорт 1011.2 1008.9
06 23.06 С 3 20 км 10/1 600 м
[Cu hum Ac trans Cc]
+22.3 +13.0 56 +25 +29 комфорт 1009.4 1007.1
09 23.06 С 3 20 км 10/8 600 м
[Cb cap Ac trans]
+19.0 +12.5 66 +20 +20 по сезону 1010.1 1007.7 +22.7 0.0
12 23.06 С 3 20 км слаб. ливневой дождь 10/10 600 м
[Cb cap]
+14.5 +12.3 87 +14 +14 прохладно 1011.3 1008.9
15 23.06 СЗ 2 10 км слаб. ливневой дождь 10/10 600 м
[Cb cap]
+13.9 +12.3 90 +13 +13 прохладно 1010.6 1008.2
18 23.06 С 2 10 км слаб. ливневой дождь 10/10 600 м
[Cb cap]
+13.1 +11.4 89 +12 +12 прохладно 1010.6 1008.2
21 23.06 С 1 20 км {ливн. осадки} 10/8 600 м
[Sc Ac trans]
+14.0 +12.0 88 +14 +14 прохладно 1010.7 1008.3 +12.9 2
00 24.06 СВ 2 20 км {ливн. осадки} 10/10 600 м
[Sc]
+17.5 +13.6 78 +18 +18 прохладно 1010.6 1008.3
03 24.06 З 1 20 км 8/3 600 м
[Sc Ci fib]
+20.8 +15.1 70 +25 +37 комфорт 1009.9 1007.5
06 24.06 ЮВ 2 20 км 8/3 600 м
[Sc Ac As]
+23.5 +16.0 63 +27 +31 душно 1008.1 1005.8
09 24.06 ЮВ 2 20 км 10/6 600 м
[Cb cap Ac und]
+23.8 +16.9 65 +27 +28 жарко 1007.1 1004.8 +24.4
12 24.06 штиль 0 20 км {ливн. осадки} 10/10 600 м
[Cb cap]
+19.9 +16.9 83 +22 +22 комфорт 1006.9 1004.6
15 24.06 ЮВ 1 10 км слаб. ливневой дождь 10/10 600 м
[Cb cap]
+18.1 +16.8 92 +19 +19 тепло 1004.9 1002.6
18 24.06 Ю 3 20 км {ливн. осадки} 10/10 600 м
[Cb cap]
+19.6 +17.6 88 +22 +22 комфорт 1003.4 1001.1
21 24.06 ЮЗ 2 20 км 10/6 600 м
[Frnb Ac As]
+17.9 +15.7 87 +18 +19 по сезону 1002.4 1000.0 +17.9 0.8
00 25.06 СЗ 1 20 км {ливн. осадки} 10/10 600 м
[Cb cap]
+17.2 +15.6 90 +18 +18 прохладно 1002.4 1000.1 +15.6
03 25.06 С 5 20 км 10/10 600 м
[Cb cap]
+13.2 +11.2 88 +11 +11 очень
холодно
1002.8 1000.5
06 25.06 С 5
{11}
20 км 10/9 600 м
[Cb cap Ac trans]
+14.0 +9.6 75 +12 +12 очень
холодно
1004.2 1001.8
09 25.06 С 4
{11}
20 км 10/10 600 м
[Cb cap]
+14.1 +9.5 74 +13 +13 очень
холодно
1006.0 1003.6 +18.6 0.3
12 25.06 С 5-11
{16}
20 км {ливн. осадки} 10/10 600 м
[Cb cap]
+12.0 +6.1 67 +10 +10 очень
холодно
1009.5 1007.1
15 25.06 С 4
{13}
20 км 10/10 600 м
[Cb cap]
+9.6 +3.7 67 +7 +7 очень
холодно
1010.7 1008.3
18 25.06 С 5-10
{12}
20 км 10/10 600 м
[Cb cap]
+8.3 +3.9 74 +5 +5 очень
холодно
1011.5 1009.1

 

Местоположение метеостанции Комсомольск-на-Амуре (Хабаровский край, Россия): широта 50.53 долгота 137.00 высота над уровнем моря 21 м.

В архиве по умолчанию представлена погода в Комсомольске-на-Амуре за последнюю неделю. Архивные данные за месяц целиком и за предыдущие месяцы, начиная с января 2011 года, Вы можете получить, выбрав интересующий диапазон дат из раскрывающегося списка и нажав кнопку "Ввод!".


*Определитесь, кто Вы:
робот инопланетянин человек

Внимание! Время в таблицах - всемирное. Для получения местного времени необходимо прибавить поправку, которая равна 10 ч.

Смотрите также архив погоды в соседних городах и на ближайших метеорологических станциях:

Погода в Амурске (Хабаровский край, Россия) (28 км)
Погода в Горине (Хабаровский край, Россия) (76 км)
Погода в Нижнетамбовском (Хабаровский край, Россия) (89 км)
Погода в Сегжеме (Хабаровский край, Россия) (101 км)
Погода в Троицком (Хабаровский край, Россия) (124 км)
Погода в Солекуль (Хабаровский край, Россия) (167 км)
Погода в Хуларине (Хабаровский край, Россия) (172 км)
Погода в Циммермановка (Хабаровский край, Россия) (178 км)
Погода в Куре (Хабаровский край, Россия) (183 км)
Погода в Литовко (Хабаровский край, Россия) (199 км)

Пояснения к столбцам:

Ветер - указаны скорость ветра в м/с - средняя за 10 мин, порывы в срок и между сроками (в фигурных скобках) и направление, откуда дует ветер: С - северный, СВ - северо-восточный, В - восточный, ЮВ - юго-восточный, Ю - южный, ЮЗ - юго-западный, З - западный, СЗ - северо-западный.
Видимость - горизонтальная дальность видимости в метрах или километрах. При видимости от 1 до 10 км при отсутствии осадков обычно наблюдается дымка, при ухудшении видимости до 1 км и менее - туман. В сухую погоду видимость может ухудшаться дымом, пылью или мглою.
Явления - указаны атмосферные явления, наблюдавшиеся в срок или в последний час перед сроком; фигурными скобками обозначены явления, наблюдавшиеся между сроками (за 1-3 часа до срока); квадратными скобками обозначены град или гололедные отложения с указанием их диаметра в мм.
Облачность - указаны через наклонную черту общая и нижняя облачность в баллах и высота нижней границы облаков в метрах; квадратными скобками обозначены формы облаков: Ci - перистые, Cs - перисто-слоистые, Cc - перисто-кучевые, Ac - высококучевые, As - высокослоистые, Sc - слоисто-кучевые, Ns - слоисто-дождевые, Cu - кучевые, Cb - кучево-дождевые. Подробнее классификацию облаков см. в Атласе облаков (PDF).
T - Температура воздуха - температура, измеренная на высоте 2 м над землей.
Td - Температура точки росы - температура, при понижении до которой содержащийся в воздухе водяной пар достигнет насыщения.
f - Относительная влажность воздуха - влажноcть воздуха, измеренная на высоте 2 м над землей.
Te - Эффективная температура - температура, которую ощущает одетый по сезону человек в тени. Характеристика душности погоды. При расчете учитывается влияние влажности воздуха и скорости ветра на теплоощущения человека.
Tes - Эффективная температура на солнце - температура, которую ощущает человек, с поправкой на солнечный нагрев. Характеристика знойности погоды. Зависит от высоты солнца над горизонтом, облачности и скорости ветра. Ночью, в пасмурную погоду, а также при ветре 12 м/с и более поправка равна нулю.
P - Атмосферное давление - приведенное к уровню моря атмосферное давление.
Po - Атмосферное давление - измеренное на уровне метеостанции атмосферное давление.
Tmin - Минимальная температура - минимум температуры воздуха на высоте 2 м над землей.
Tmax - Максимальная температура - максимум температуры воздуха на высоте 2 м над землей.
R - Количество осадков - Количество выпавших осадков за период времени, мм. При наведении курсора мыши на число - период времени, за который выпало указанное количество осадков.
R24 - Количество осадков - Количество выпавших осадков за 24 часа, мм.
S - Снежный покров - Высота снежного покрова, см. При наведении курсора мыши на число - состояние снежного покрова и степень покрытия местности в баллах.